[[{"header":{"parameterUnit":"m.s-1","parameterCategory":1,"la1":30.2991,"la2":30.254,"lo1":-89.0895,"lo2":-89.0444,"dy":0.0017,"dx":0.0017,"nx":28,"ny":28,"refTime":"2023-09-02T09:00:00:Z","depth":0,"parameterNumber":2,"parameterNumberName":"U-component_of_WINDS"},"data":[0,0,0,0,0,0,0,0,0,0,0,0,0,0,0,0,0,0,0,0,0,0,0,0,0,0,0,0,0,0,0,0,0,0,0,0,0,0,0,0,0,0,0,0,0,0,0,0,0,0,0,0,0,0,0,0,0,0,-0.6364,-0.6364,0,-0.6335,-0.6335,-0.6335,-0.6367,-0.6369,-0.637,-0.6371,-0.6339,-0.6337,-0.6335,0,0,0,0,0,0,0,0,0,0,0,0,0,-0.6445,-0.6443,-0.6364,-0.6364,-0.6364,-0.6335,-0.6335,-0.6335,-0.6367,-0.6369,-0.637,-0.6372,-0.634,-0.6337,-0.6335,0,0,0,0,0,0,0,0,0,0,0,0,0,-0.6412,-0.6443,-0.6364,-0.6377,-0.6377,-0.6336,-0.6335,-0.6335,-0.6367,-0.6369,-0.6371,-0.6372,-0.634,-0.6337,-0.6334,-0.6279,0,0,-0.6325,-0.6324,0,0,0,0,0,0,0,0,-0.6414,-0.6409,-0.6375,-0.6376,-0.6376,-0.6357,-0.6352,-0.6316,-0.6366,-0.6371,-0.6371,-0.6373,-0.6343,-0.634,-0.633,-0.6277,-0.6276,-0.6325,-0.6323,-0.6322,-0.6321,0,0,0,0,0,0,0,-0.6416,-0.6411,-0.6353,-0.6375,-0.6375,-0.6382,-0.638,-0.6345,-0.6347,-0.637,-0.6373,-0.6369,-0.6344,-0.6333,-0.633,-0.6275,-0.6325,-0.6322,-0.632,-0.6319,-0.6173,-0.6171,0,0,0,0,0,0,-0.6417,-0.6412,-0.6354,-0.6352,-0.64,-0.6379,-0.6377,-0.6361,-0.6347,-0.6347,-0.6367,-0.6371,-0.6338,-0.6333,-0.6329,-0.6261,-0.6322,-0.6319,-0.6317,-0.6175,-0.6173,-0.617,0,0,0,0,0,0,-0.6419,-0.6412,-0.6355,-0.6383,-0.6376,-0.6376,-0.6359,-0.636,-0.6349,-0.6345,-0.6345,-0.6356,-0.6339,-0.6333,-0.6291,-0.6261,-0.6318,-0.6315,-0.6178,-0.6174,-0.6171,-0.6127,0,0,0,0,0,0,-0.6421,-0.6412,-0.6392,-0.6382,-0.6374,-0.6318,-0.6357,-0.6358,-0.6344,-0.6348,-0.6335,-0.6334,-0.634,-0.6295,-0.6288,-0.6258,-0.6313,-0.618,-0.6176,-0.6172,-0.6131,-0.6122,-0.6115,0,0,0,0,0,-0.6424,-0.638,-0.6391,-0.6383,-0.6349,-0.6316,-0.6312,-0.632,-0.6342,-0.632,-0.6318,-0.6335,-0.6266,-0.629,-0.6282,-0.6251,-0.6182,-0.6177,-0.6173,-0.6134,-0.6124,-0.6115,0,0,0,0,0,0,-0.6386,-0.6379,-0.6391,-0.6343,-0.633,-0.6322,-0.6295,-0.6309,-0.6289,-0.6293,-0.6303,-0.63,-0.6254,-0.6249,-0.6276,-0.6196,-0.6227,-0.6221,-0.6201,-0.6191,-0.6183,-0.6185,-0.631,0,0,0,0,0,-0.6372,-0.6347,-0.6342,-0.63,-0.6293,-0.6295,-0.6281,-0.6288,-0.6275,-0.627,-0.6264,-0.6249,-0.6224,-0.6208,-0.6185,-0.6131,-0.6127,-0.6105,-0.6097,-0.6091,-0.6085,-0.6054,-0.6044,-0.6155,-0.6155,-0.6155,0,0,-0.6343,-0.6336,-0.6319,-0.6292,-0.6283,-0.6255,-0.629,-0.626,-0.6239,-0.6265,-0.6224,-0.6219,-0.6204,-0.6155,-0.6133,-0.6149,-0.6053,-0.6085,-0.608,-0.6077,-0.6048,-0.6038,-0.6028,-0.6152,-0.6152,-0.6153,0,0,-0.6275,-0.6268,-0.6232,-0.6222,-0.6208,-0.6209,-0.6201,-0.619,-0.6188,-0.6148,-0.6166,-0.6141,-0.6098,-0.6086,-0.6074,-0.6001,-0.6016,-0.5993,-0.5952,-0.5922,-0.5914,-0.5906,-0.5878,-0.5869,-0.5988,-0.5988,-0.5987,0,-0.624,-0.62,-0.6211,-0.6179,-0.6166,-0.6189,-0.6151,-0.6141,-0.6119,-0.6109,-0.6127,-0.6073,-0.6064,-0.6012,-0.5994,-0.5985,-0.5974,-0.5994,-0.5914,-0.5907,-0.5899,-0.5873,-0.5863,-0.5985,-0.5985,-0.5985,-0.5986,0,-0.6157,-0.6129,-0.6102,-0.6081,-0.6065,-0.603,-0.6034,-0.6016,-0.6025,-0.6024,-0.5982,-0.5972,-0.5947,-0.5936,-0.5943,-0.5884,-0.5894,-0.5913,-0.5945,-0.5886,-0.5861,-0.5852,-0.5981,-0.5982,-0.5983,-0.5983,0,0,-0.6065,-0.605,-0.604,-0.603,-0.6016,-0.5994,-0.596,-0.5935,-0.5919,-0.5904,-0.5874,-0.5837,-0.5854,-0.5841,-0.5848,-0.5822,-0.5762,-0.5844,-0.5843,-0.5828,-0.5694,-0.5679,-0.5667,-0.5772,-0.5771,-0.5769,-0.5695,0,-0.5996,-0.5937,-0.5946,-0.5889,-0.5862,-0.5883,-0.5853,-0.584,-0.5839,-0.5815,-0.5813,-0.5786,-0.5812,-0.5803,-0.5779,-0.5775,-0.5736,-0.5781,-0.5744,-0.5742,-0.5745,-0.5655,-0.5639,-0.5569,-0.5686,-0.5684,-0.5683,0,-0.5908,-0.5889,-0.583,-0.5819,-0.5808,-0.5781,-0.5759,-0.5736,-0.5722,-0.5722,-0.5707,-0.5718,-0.5683,-0.5716,-0.5666,-0.5697,-0.5682,-0.5678,-0.5675,-0.5671,-0.5708,-0.5647,-0.5548,-0.5537,-0.5668,-0.567,-0.5671,0,-0.5844,-0.5804,-0.5764,-0.5755,-0.5741,-0.5721,-0.5715,-0.5702,-0.5687,-0.5667,-0.5657,-0.5633,-0.562,-0.5601,-0.5605,-0.5629,-0.5553,-0.5587,-0.5551,-0.5551,-0.5534,-0.5534,-0.5429,-0.5526,-0.5527,-0.5527,-0.5527,0,-0.5766,-0.5728,-0.5735,-0.5709,-0.5667,-0.5677,-0.5635,-0.563,-0.5619,-0.5592,-0.5609,-0.5583,-0.5591,-0.5565,-0.5568,-0.5525,-0.5519,-0.5518,-0.5519,-0.5515,-0.5515,-0.5505,-0.5509,-0.5524,-0.5525,-0.5525,-0.5526,0,-0.5687,-0.569,-0.5647,-0.5638,-0.5634,-0.5604,-0.5595,-0.557,-0.557,-0.5536,-0.5528,-0.5527,-0.5498,-0.55,-0.5467,-0.5469,-0.5416,-0.5423,-0.5421,-0.5422,-0.5385,-0.5388,-0.5269,-0.5253,-0.5361,-0.536,-0.5359,0,-0.5637,-0.5608,-0.5596,-0.5579,-0.5571,-0.5545,-0.5529,-0.5537,-0.5519,-0.55,-0.5478,-0.545,-0.5428,-0.5379,-0.5375,-0.5349,-0.5355,-0.5315,-0.5351,-0.5348,-0.5353,-0.5354,-0.535,-0.5307,-0.5306,-0.5305,-0.5305,0,-0.5546,-0.5548,-0.5526,-0.5502,-0.5483,-0.5466,-0.5449,-0.5435,-0.5441,-0.542,-0.539,-0.5373,-0.5339,-0.5311,-0.5286,-0.5278,-0.5291,-0.5293,-0.5283,-0.5279,-0.5278,-0.5277,-0.54,-0.5296,-0.5297,-0.5297,-0.5298,-0.5298,-0.5479,-0.5454,-0.5441,-0.5414,-0.5403,-0.5387,-0.5363,-0.536,-0.5336,-0.5309,-0.5315,-0.5281,-0.5266,-0.5234,-0.5223,-0.5196,-0.5211,-0.5196,-0.5193,-0.5189,-0.5184,-0.5284,-0.5192,-0.5192,-0.5192,-0.5193,-0.5193,0,-0.5387,-0.538,-0.5356,-0.5332,-0.5311,-0.5327,-0.5309,-0.529,-0.526,-0.5245,-0.5223,-0.5188,-0.516,-0.5154,-0.5127,-0.5106,-0.5111,-0.5099,-0.5099,-0.5097,-0.5173,-0.5184,-0.5095,-0.5095,-0.5095,-0.5095,-0.5095,-0.5095,-0.5337,-0.5296,-0.5296,-0.5249,-0.5242,-0.5209,-0.5197,-0.5182,-0.5171,-0.5131,-0.5108,-0.5104,-0.5092,-0.5064,-0.5039,-0.5037,-0.5026,-0.501,-0.5011,-0.5082,-0.5092,-0.5101,-0.5111,-0.5008,-0.5008,-0.4937,-0.4936,-0.4936]},{"header":{"parameterUnit":"m.s-1","parameterCategory":1,"la1":30.2991,"la2":30.254,"lo1":-89.0895,"lo2":-89.0444,"dy":0.0017,"dx":0.0017,"nx":28,"ny":28,"refTime":"2023-09-02T09:00:00:Z","depth":0,"parameterNumber":3,"parameterNumberName":"V-component_of_WINDS"},"data":[0,0,0,0,0,0,0,0,0,0,0,0,0,0,0,0,0,0,0,0,0,0,0,0,0,0,0,0,0,0,0,0,0,0,0,0,0,0,0,0,0,0,0,0,0,0,0,0,0,0,0,0,0,0,0,0,0,0,0.5905,0.5904,0,0.578,0.5778,0.5777,0.5637,0.5635,0.5633,0.5631,0.5509,0.5508,0.5507,0,0,0,0,0,0,0,0,0,0,0,0,0,0.6032,0.6031,0.5906,0.5904,0.5902,0.578,0.5778,0.5776,0.5638,0.5635,0.5633,0.563,0.551,0.5508,0.5507,0,0,0,0,0,0,0,0,0,0,0,0,0,0.5949,0.603,0.5906,0.5818,0.5809,0.578,0.5778,0.5776,0.5638,0.5635,0.5632,0.5629,0.551,0.5508,0.5506,0.5555,0,0,0.55,0.5499,0,0,0,0,0,0,0,0,0.5954,0.5945,0.5833,0.5824,0.5814,0.5721,0.5778,0.5702,0.5639,0.5703,0.5631,0.5628,0.5583,0.5575,0.5558,0.555,0.5544,0.55,0.5499,0.5498,0.5497,0,0,0,0,0,0,0,0.596,0.5949,0.5856,0.5831,0.582,0.5787,0.5772,0.5763,0.5662,0.5698,0.5687,0.5674,0.5577,0.556,0.5554,0.5543,0.55,0.5498,0.5497,0.5496,0.5569,0.5572,0,0,0,0,0,0,0.5978,0.5955,0.586,0.5852,0.5878,0.5788,0.577,0.5754,0.5662,0.5644,0.5677,0.5668,0.5565,0.5556,0.5549,0.56,0.5498,0.5496,0.5495,0.5566,0.5569,0.5573,0,0,0,0,0,0,0.5981,0.5971,0.5865,0.5901,0.5884,0.5789,0.5771,0.5753,0.5736,0.5646,0.5628,0.5677,0.5562,0.5552,0.5554,0.5594,0.5495,0.5493,0.5562,0.5567,0.5571,0.5703,0,0,0,0,0,0,0.5985,0.5973,0.5989,0.5902,0.5883,0.5871,0.5774,0.5753,0.5732,0.5719,0.5642,0.5626,0.5559,0.5558,0.5552,0.5589,0.5492,0.5558,0.5564,0.557,0.5695,0.5712,0.5726,0,0,0,0,0,0.599,0.6033,0.599,0.598,0.5901,0.5873,0.5863,0.5783,0.5736,0.5752,0.5694,0.5628,0.5591,0.556,0.5552,0.5589,0.5555,0.5562,0.5569,0.5688,0.5708,0.5726,0,0,0,0,0,0,0.6129,0.602,0.5972,0.5986,0.594,0.585,0.5868,0.5807,0.5775,0.5765,0.5669,0.5653,0.5667,0.5628,0.5595,0.5632,0.5563,0.5569,0.5656,0.5675,0.5691,0.57,0.549,0,0,0,0,0,0.6161,0.6146,0.6051,0.6074,0.6053,0.5965,0.595,0.5892,0.5841,0.5821,0.5763,0.5718,0.5696,0.5683,0.5658,0.5689,0.567,0.571,0.5726,0.574,0.5746,0.5759,0.5776,0.5596,0.5596,0.5596,0,0,0.6228,0.6166,0.6162,0.61,0.6057,0.6045,0.5949,0.594,0.5931,0.5821,0.5818,0.5775,0.5718,0.5735,0.5739,0.5703,0.5791,0.5748,0.576,0.5758,0.5768,0.5785,0.5801,0.5601,0.56,0.5599,0,0,0.6342,0.6294,0.6306,0.6265,0.6201,0.6142,0.6146,0.6064,0.603,0.6026,0.5943,0.5932,0.5895,0.5858,0.5835,0.5936,0.5875,0.5931,0.6013,0.6027,0.6041,0.6053,0.609,0.6104,0.5937,0.5938,0.5938,0,0.6434,0.6409,0.6322,0.6317,0.6293,0.619,0.6204,0.6169,0.6101,0.6087,0.6047,0.5999,0.5954,0.596,0.5985,0.5969,0.5971,0.5939,0.6046,0.6057,0.6067,0.6101,0.6115,0.5945,0.5944,0.5943,0.5943,0,0.6525,0.651,0.6529,0.6463,0.644,0.6446,0.636,0.6349,0.6294,0.624,0.6238,0.618,0.6141,0.6138,0.6085,0.6138,0.6117,0.6063,0.5993,0.6093,0.6123,0.6135,0.5955,0.5953,0.595,0.5949,0,0,0.6723,0.6608,0.6616,0.6585,0.6506,0.6494,0.6496,0.6455,0.6447,0.6404,0.6404,0.6375,0.6324,0.6298,0.624,0.6253,0.6337,0.6197,0.6194,0.6225,0.6392,0.6433,0.6449,0.6296,0.6298,0.6299,0.6396,0,0.6823,0.6816,0.6737,0.6753,0.6739,0.6642,0.6643,0.6596,0.6546,0.6529,0.6474,0.6455,0.639,0.6373,0.6381,0.6325,0.6369,0.6317,0.6296,0.6296,0.6312,0.6464,0.6507,0.6601,0.6407,0.6409,0.6411,0,0.6939,0.6901,0.6915,0.6836,0.6827,0.6829,0.6786,0.6769,0.6715,0.6678,0.6649,0.6583,0.658,0.6514,0.651,0.6477,0.6464,0.6435,0.6437,0.6431,0.6359,0.6463,0.6629,0.6644,0.6428,0.6427,0.6426,0,0.7082,0.7034,0.7036,0.7012,0.692,0.6924,0.6887,0.6829,0.681,0.6773,0.676,0.6725,0.6706,0.6681,0.6608,0.6566,0.6613,0.654,0.6583,0.6585,0.6597,0.6597,0.6763,0.6589,0.6589,0.6589,0.6589,0,0.7202,0.7215,0.7098,0.71,0.7112,0.7022,0.7037,0.699,0.694,0.6932,0.6847,0.6842,0.6746,0.673,0.6674,0.6679,0.6672,0.6643,0.6628,0.665,0.6654,0.664,0.6632,0.6593,0.6592,0.6591,0.659,0,0.7363,0.7286,0.7282,0.7194,0.7173,0.7186,0.7112,0.7111,0.7055,0.7047,0.704,0.6954,0.6932,0.6856,0.6816,0.6778,0.6801,0.6772,0.6819,0.6809,0.6856,0.6853,0.7019,0.7037,0.6852,0.6854,0.6856,0,0.7445,0.7452,0.7365,0.7352,0.7318,0.7299,0.7278,0.7191,0.7174,0.7112,0.7119,0.7089,0.7061,0.703,0.6966,0.6935,0.6904,0.6965,0.6899,0.6922,0.6905,0.6905,0.6906,0.6979,0.6982,0.6983,0.6985,0,0.7598,0.7559,0.7531,0.7491,0.7468,0.7432,0.7392,0.7388,0.729,0.7275,0.725,0.7228,0.7186,0.7158,0.7116,0.708,0.7017,0.7006,0.7014,0.7037,0.7064,0.705,0.6858,0.7003,0.7001,0.7,0.6999,0.6998,0.7721,0.7723,0.7662,0.7634,0.7594,0.7558,0.7553,0.7496,0.7473,0.743,0.7381,0.7362,0.7308,0.7245,0.7214,0.7199,0.7165,0.7177,0.718,0.7184,0.7195,0.7067,0.7191,0.7191,0.719,0.719,0.7189,0,0.7869,0.7825,0.78,0.7746,0.7725,0.7665,0.7618,0.7604,0.7588,0.7542,0.7515,0.7487,0.746,0.7393,0.736,0.7361,0.7332,0.7356,0.7355,0.7347,0.7228,0.7224,0.738,0.738,0.738,0.738,0.738,0.738,0.7944,0.7943,0.7898,0.7878,0.7833,0.7812,0.779,0.7758,0.772,0.7692,0.7668,0.7624,0.757,0.7532,0.7505,0.7487,0.7479,0.7512,0.7484,0.7374,0.7356,0.7338,0.7334,0.7511,0.7511,0.7605,0.7606,0.7606]}]]